When you browse on this site, cookies collect data to enhance your experience and personalize the content and advertising you see.
Visit our Privacy Policy to learn more. By continuing to use the site, you agree to this use of cookies and data.
  • Em Portugal
  • Lista de países
  • Para 7 dias
  • Temperatura da água
  • Mapa do tempo
  • Widgets de tempo
  • user-avatar
    Iniciar Sessão

    Previsão horária em Ischgl

    Hoje, 1 Junho, Segunda-feira

    Tempo Temperatura Precipitação Vento Pressão Humidade
    00:00 -1°C° 0 mm 1 m/s 573 mmHg 90%
    01:00 -1°C° 0 mm 1 m/s 573 mmHg 89%
    02:00 -1°C° 0 mm 1 m/s 573 mmHg 87%
    03:00 -1°C° 0 mm 1 m/s 573 mmHg 84%
    04:00 -1°C° 0 mm 1 m/s 573 mmHg 82%
    05:00 +1°C° 0 mm 1 m/s 574 mmHg 74%
    06:00 +3°C° 0 mm 1 m/s 575 mmHg 67%
    07:00 +4°C° 0 mm 0 m/s 576 mmHg 59%
    08:00 +7°C° 0 mm 1 m/s 577 mmHg 54%
    09:00 +9°C° 0 mm 1 m/s 577 mmHg 49%
    10:00 +10°C° 0 mm 1 m/s 578 mmHg 44%
    11:00 +11°C° 0 mm 1 m/s 578 mmHg 43%
    12:00 +12°C° 0 mm 1 m/s 579 mmHg 42%
    13:00 +13°C° 0 mm 2 m/s 579 mmHg 42%
    14:00 +13°C° 0 mm 2 m/s 579 mmHg 45%
    15:00 +13°C° 0 mm 2 m/s 578 mmHg 48%
    16:00 +12°C° 0 mm 2 m/s 578 mmHg 51%
    17:00 +10°C° 0.3 mm 2 m/s 578 mmHg 60%
    18:00 +9°C° 0.3 mm 2 m/s 577 mmHg 70%
    19:00 +8°C° 0.3 mm 1 m/s 576 mmHg 80%
    20:00 +6°C° 0.3 mm 1 m/s 575 mmHg 85%
    21:00 +5°C° 0.3 mm 1 m/s 575 mmHg 90%
    22:00 +3°C° 0.3 mm 1 m/s 574 mmHg 94%
    23:00 +1°C° 0 mm 0 m/s 574 mmHg 95%

    Amanhã, 2 Junho, Terça-feira

    Tempo Temperatura Precipitação Vento Pressão Humidade
    00:00 +1°C° 0 mm 0 m/s 573 mmHg 95%
    01:00 0°C° 0 mm 0 m/s 573 mmHg 95%
    02:00 0°C° 0 mm 0 m/s 573 mmHg 95%
    03:00 0°C° 0 mm 0 m/s 573 mmHg 94%
    04:00 0°C° 0 mm 0 m/s 572 mmHg 94%
    05:00 +2°C° 0 mm 0 m/s 573 mmHg 89%
    06:00 +5°C° 0 mm 1 m/s 574 mmHg 84%
    07:00 +7°C° 0 mm 1 m/s 576 mmHg 79%
    08:00 +8°C° 0 mm 1 m/s 576 mmHg 69%
    09:00 +9°C° 0 mm 2 m/s 576 mmHg 60%
    10:00 +10°C° 0 mm 2 m/s 577 mmHg 50%
    11:00 +10°C° 0.1 mm 2 m/s 577 mmHg 49%
    12:00 +12°C° 0.1 mm 2 m/s 577 mmHg 49%
    13:00 +11°C° 0.1 mm 3 m/s 577 mmHg 48%
    14:00 +11°C° 0.5 mm 3 m/s 576 mmHg 51%
    15:00 +11°C° 0.5 mm 3 m/s 576 mmHg 54%
    16:00 +10°C° 0.5 mm 3 m/s 575 mmHg 57%
    17:00 +9°C° 0.3 mm 2 m/s 575 mmHg 63%
    18:00 +8°C° 0.3 mm 2 m/s 574 mmHg 69%
    19:00 +7°C° 0.3 mm 2 m/s 574 mmHg 74%
    20:00 +6°C° 0.1 mm 1 m/s 573 mmHg 80%
    21:00 +4°C° 0.1 mm 1 m/s 572 mmHg 86%
    22:00 +1°C° 0.1 mm 0 m/s 571 mmHg 92%
    23:00 +1°C° 0 mm 0 m/s 571 mmHg 92%

    Depois de amanhã, 3 Junho, Quarta-feira

    Tempo Temperatura Precipitação Vento Pressão Humidade
    00:00 +1°C° 0 mm 0 m/s 570 mmHg 93%
    01:00 0°C° 0 mm 0 m/s 570 mmHg 93%
    02:00 0°C° 0 mm 0 m/s 570 mmHg 93%
    03:00 0°C° 0 mm 0 m/s 569 mmHg 92%
    04:00 0°C° 0 mm 0 m/s 569 mmHg 92%
    05:00 +2°C° 0 mm 0 m/s 570 mmHg 84%
    06:00 +4°C° 0 mm 0 m/s 571 mmHg 76%
    07:00 +6°C° 0 mm 0 m/s 572 mmHg 68%
    08:00 +9°C° 0 mm 1 m/s 572 mmHg 58%
    09:00 +10°C° 0 mm 1 m/s 573 mmHg 48%
    10:00 +12°C° 0 mm 1 m/s 574 mmHg 38%
    11:00 +13°C° 0 mm 1 m/s 574 mmHg 36%
    12:00 +13°C° 0 mm 1 m/s 574 mmHg 34%
    13:00 +14°C° 0 mm 2 m/s 573 mmHg 33%
    14:00 +14°C° 0.1 mm 2 m/s 573 mmHg 36%
    15:00 +13°C° 0.1 mm 2 m/s 573 mmHg 39%
    16:00 +13°C° 0.1 mm 2 m/s 572 mmHg 43%
    17:00 +12°C° 0.4 mm 2 m/s 571 mmHg 54%
    18:00 +10°C° 0.4 mm 1 m/s 571 mmHg 65%
    19:00 +9°C° 0.4 mm 1 m/s 570 mmHg 76%
    20:00 +8°C° 0.3 mm 1 m/s 570 mmHg 79%
    21:00 +7°C° 0.3 mm 1 m/s 569 mmHg 83%
    22:00 +6°C° 0.3 mm 1 m/s 569 mmHg 87%
    23:00 +5°C° 0.1 mm 1 m/s 569 mmHg 88%

    4 Junho, Quinta-feira

    Tempo Temperatura Precipitação Vento Pressão Humidade
    00:00 +5°C° 0.1 mm 1 m/s 568 mmHg 90%
    01:00 +3°C° 0.1 mm 2 m/s 568 mmHg 92%
    02:00 +3°C° 0 mm 2 m/s 568 mmHg 92%
    03:00 +3°C° 0 mm 2 m/s 567 mmHg 92%
    04:00 +3°C° 0 mm 2 m/s 567 mmHg 92%
    05:00 +4°C° 0 mm 2 m/s 568 mmHg 90%
    06:00 +5°C° 0 mm 2 m/s 568 mmHg 87%
    07:00 +5°C° 0 mm 2 m/s 568 mmHg 84%
    08:00 +6°C° 0.1 mm 2 m/s 568 mmHg 82%
    09:00 +7°C° 0.1 mm 2 m/s 569 mmHg 79%
    10:00 +7°C° 0.1 mm 2 m/s 569 mmHg 77%
    11:00 +7°C° 0.5 mm 2 m/s 569 mmHg 79%
    12:00 +7°C° 0.5 mm 2 m/s 569 mmHg 82%
    13:00 +7°C° 0.5 mm 2 m/s 569 mmHg 84%
    14:00 +6°C° 1.5 mm 2 m/s 568 mmHg 87%
    15:00 +6°C° 1.5 mm 2 m/s 568 mmHg 89%
    16:00 +5°C° 1.5 mm 2 m/s 568 mmHg 91%
    17:00 +5°C° 0.4 mm 2 m/s 568 mmHg 92%
    18:00 +6°C° 0.4 mm 1 m/s 568 mmHg 93%
    19:00 +6°C° 0.4 mm 1 m/s 568 mmHg 94%
    20:00 +5°C° 1.4 mm 1 m/s 568 mmHg 94%
    21:00 +5°C° 1.4 mm 1 m/s 568 mmHg 95%
    22:00 +5°C° 1.4 mm 1 m/s 568 mmHg 96%
    23:00 +4°C° 0.2 mm 1 m/s 568 mmHg 95%

    5 Junho, Sexta-feira

    Tempo Temperatura Precipitação Vento Pressão Humidade
    00:00 +4°C° 0.2 mm 1 m/s 568 mmHg 95%
    01:00 +4°C° 0.2 mm 1 m/s 567 mmHg 94%
    02:00 +4°C° 0.4 mm 1 m/s 567 mmHg 95%
    03:00 +4°C° 0.4 mm 1 m/s 567 mmHg 95%
    04:00 +3°C° 0.4 mm 0 m/s 567 mmHg 96%
    05:00 +3°C° 0.5 mm 0 m/s 568 mmHg 96%
    06:00 +4°C° 0.5 mm 0 m/s 568 mmHg 95%
    07:00 +4°C° 0.5 mm 0 m/s 568 mmHg 95%
    08:00 +5°C° 0.3 mm 0 m/s 569 mmHg 92%
    09:00 +6°C° 0.3 mm 0 m/s 569 mmHg 88%
    10:00 +7°C° 0.3 mm 0 m/s 570 mmHg 85%
    11:00 +9°C° 0.6 mm 1 m/s 570 mmHg 80%
    12:00 +10°C° 0.6 mm 1 m/s 571 mmHg 75%
    13:00 +12°C° 0.6 mm 2 m/s 571 mmHg 70%
    14:00 +10°C° 1.2 mm 2 m/s 571 mmHg 73%
    15:00 +10°C° 1.2 mm 2 m/s 571 mmHg 75%
    16:00 +10°C° 1.2 mm 2 m/s 570 mmHg 77%
    17:00 +9°C° 1 mm 2 m/s 570 mmHg 81%
    18:00 +8°C° 1 mm 2 m/s 569 mmHg 85%
    19:00 +7°C° 1 mm 2 m/s 569 mmHg 89%
    20:00 +7°C° 1.5 mm 2 m/s 569 mmHg 91%
    21:00 +6°C° 1.5 mm 2 m/s 568 mmHg 93%
    22:00 +5°C° 1.5 mm 2 m/s 568 mmHg 95%
    23:00 +4°C° 2.1 mm 2 m/s 568 mmHg 95%

    6 Junho, Sábado

    Tempo Temperatura Precipitação Vento Pressão Humidade
    00:00 +4°C° 2.1 mm 2 m/s 568 mmHg 95%
    01:00 +3°C° 2.1 mm 2 m/s 567 mmHg 95%
    02:00 +4°C° 1.3 mm 1 m/s 567 mmHg 95%
    03:00 +4°C° 1.3 mm 1 m/s 567 mmHg 95%
    04:00 +4°C° 1.3 mm 1 m/s 567 mmHg 95%
    05:00 +4°C° 1.8 mm 1 m/s 567 mmHg 95%
    06:00 +4°C° 1.8 mm 1 m/s 567 mmHg 96%
    07:00 +4°C° 1.8 mm 1 m/s 568 mmHg 96%
    08:00 +4°C° 1.6 mm 1 m/s 568 mmHg 95%
    09:00 +4°C° 1.6 mm 1 m/s 568 mmHg 94%
    10:00 +4°C° 1.6 mm 1 m/s 568 mmHg 93%
    11:00 +4°C° 0.5 mm 1 m/s 568 mmHg 92%
    12:00 +5°C° 0.5 mm 1 m/s 569 mmHg 92%
    13:00 +5°C° 0.5 mm 1 m/s 569 mmHg 91%
    14:00 +6°C° 0.1 mm 1 m/s 569 mmHg 90%
    15:00 +6°C° 0.1 mm 1 m/s 569 mmHg 90%
    16:00 +6°C° 0.1 mm 1 m/s 569 mmHg 89%
    17:00 +6°C° 0.1 mm 1 m/s 570 mmHg 89%
    18:00 +6°C° 0.1 mm 1 m/s 570 mmHg 90%
    19:00 +6°C° 0.1 mm 1 m/s 570 mmHg 90%
    20:00 +5°C° 0 mm 1 m/s 570 mmHg 92%
    21:00 +5°C° 0 mm 1 m/s 570 mmHg 94%
    22:00 +3°C° 0 mm 0 m/s 570 mmHg 96%
    23:00 +3°C° 0 mm 0 m/s 570 mmHg 96%
    Mostrar mais